Weather History for Provincetown, MA

Change the Weather History Date:

Thursday, March 27, 2014

  Actual Average Record
Temperature  
Mean Temperature 30 °F -  
Max Temperature 37 °F 44 °F 64 °F (1952)
Min Temperature 23 °F 33 °F 23 °F (2005)
Degree Days  
Heating Degree Days 35    
Moisture  
Dew Point 11 °F    
Average Humidity 46    
Maximum Humidity 60    
Minimum Humidity 35    
Precipitation  
Precipitation 0.10 in - - ()
Sea Level Pressure  
Sea Level Pressure 30.29 in    
Wind  
Wind Speed 20 mph (West)    
Max Wind Speed 26 mph    
Max Gust Speed 37 mph    
Visibility 10 miles    
Events      
Averages and records for this station are not official NWS values.
T = Trace of Precipitation, MM = Missing Value Source: NWS Daily Summary

Daily Weather History Graph

Daily Weather History Graph

Search for Another Location

Airport:

Trip Planner

Search our weather history database for the weather conditions in past years. The results will help you decide how hot, cold, wet, or windy it might be!

Date:

Astronomy

Mar. 27, 2014 Rise Set
Actual Time 6:32 AM EDT 7:00 PM EDT
Civil Twilight 6:04 AM EDT 7:29 PM EDT
Nautical Twilight 5:31 AM EDT 8:02 PM EDT
Astronomical Twilight 4:57 AM EDT 8:36 PM EDT
Moon 4:24 AM EDT (3/27) 3:41 PM EDT (3/27)
Length of Visible Light 13h 24m
Length of Day
12h 28m
Waning Crescent, 13% of the Moon is Illuminated
Mar 27
Waning Crescent
Mar 30
New
Apr 7
First Quarter
Apr 15
Full
Apr 22
Last Quarter

Hourly Weather History & Observations

Time (EDT) Temp. Windchill Dew Point Humidity Pressure Visibility Wind Dir Wind Speed Gust Speed Precip Events Conditions
6:55 AM 23.0 °F 8.0 °F 6.8 °F 50% 30.25 in 10.0 mi NW 20.7 mph 33.4 mph N/A   Clear
7:15 AM 23.0 °F 6.6 °F 6.8 °F 50% 30.26 in 10.0 mi NW 25.3 mph 31.1 mph N/A   Clear
7:35 AM 24.8 °F 9.6 °F 6.8 °F 46% 30.28 in 10.0 mi NW 23.0 mph 34.5 mph N/A   Clear
7:55 AM 24.8 °F 8.7 °F 6.8 °F 46% 30.28 in 10.0 mi NW 26.5 mph 36.8 mph N/A   Clear
8:15 AM 24.8 °F 8.7 °F 8.6 °F 50% 30.28 in 10.0 mi NW 26.5 mph 34.5 mph 0.01 in   Clear
8:55 AM 26.6 °F 12.4 °F 8.6 °F 47% 30.30 in 10.0 mi NW 21.9 mph 31.1 mph 0.02 in   Clear
9:55 AM 26.6 °F 13.1 °F 6.8 °F 43% 30.31 in 10.0 mi NW 19.6 mph 28.8 mph 0.02 in   Clear
10:35 AM 28.4 °F 16.6 °F 8.6 °F 43% 30.31 in 10.0 mi NW 16.1 mph 21.9 mph 0.02 in   Clear
10:55 AM 28.4 °F 17.0 °F 10.4 °F 47% 30.32 in 10.0 mi NW 15.0 mph 21.9 mph 0.02 in   Clear
11:35 AM 30.2 °F 19.3 °F 10.4 °F 44% 30.31 in 10.0 mi WNW 15.0 mph 21.9 mph N/A   Clear
12:15 PM 30.2 °F 19.3 °F 10.4 °F 44% 30.32 in 10.0 mi WNW 15.0 mph 19.6 mph N/A   Clear
1:15 PM 33.8 °F 25.3 °F 8.6 °F 35% 30.31 in 10.0 mi WNW 11.5 mph - N/A   Clear
2:55 PM 35.6 °F 28.6 °F 10.4 °F 35% 30.30 in 10.0 mi SSW 9.2 mph - N/A   Clear
3:55 PM 35.6 °F 27.5 °F 12.2 °F 38% 30.29 in 10.0 mi South 11.5 mph - N/A   Clear
4:15 PM 37.4 °F 28.5 °F 17.6 °F 45% 30.28 in 10.0 mi SSW 15.0 mph 20.7 mph N/A   Clear
4:35 PM 37.4 °F 26.9 °F 17.6 °F 45% 30.28 in 10.0 mi SSW 20.7 mph 25.3 mph N/A   Clear
5:15 PM 35.6 °F 25.2 °F 19.4 °F 52% 30.28 in 10.0 mi SSW 18.4 mph 26.5 mph N/A   Clear
5:55 PM 35.6 °F 24.5 °F 19.4 °F 52% 30.28 in 10.0 mi SW 20.7 mph 27.6 mph N/A   Clear
6:55 PM 33.8 °F 22.2 °F 21.2 °F 60% 30.30 in 10.0 mi SW 20.7 mph 27.6 mph 0.04 in   Clear